TimeCDT,TemperatureF,Dew PointF,Humidity,Sea Level PressureIn,VisibilityMPH,Wind Direction,Wind SpeedMPH,Gust SpeedMPH,PrecipitationIn,Events,Conditions,WindDirDegrees,DateUTC
12:53 AM,53.1,46.0,77,30.20,10.0,South,5.8,-,N/A,,Clear,170,2014-04-10 05:53:00
1:53 AM,53.1,45.0,74,30.19,10.0,SSE,4.6,-,N/A,,Clear,160,2014-04-10 06:53:00
2:53 AM,53.1,44.1,71,30.18,10.0,SSE,3.5,-,N/A,,Clear,160,2014-04-10 07:53:00
3:53 AM,51.1,45.0,80,30.18,10.0,SSE,4.6,-,N/A,,Clear,160,2014-04-10 08:53:00
4:53 AM,51.1,45.0,80,30.18,10.0,South,6.9,-,N/A,,Clear,180,2014-04-10 09:53:00
5:53 AM,50.0,45.0,83,30.19,10.0,South,5.8,-,N/A,,Clear,170,2014-04-10 10:53:00
6:53 AM,50.0,46.0,86,30.19,10.0,South,4.6,-,N/A,,Clear,170,2014-04-10 11:53:00
7:53 AM,55.0,48.0,77,30.21,10.0,South,6.9,-,N/A,,Clear,170,2014-04-10 12:53:00
9:53 AM,64.9,46.9,52,30.22,10.0,South,9.2,-,N/A,,Clear,190,2014-04-10 14:53:00
10:53 AM,70.0,44.1,39,30.23,10.0,South,13.8,21.9,N/A,,Clear,190,2014-04-10 15:53:00
11:53 AM,72.0,46.0,40,30.22,10.0,South,11.5,17.3,N/A,,Clear,190,2014-04-10 16:53:00
12:53 PM,73.0,46.0,38,30.20,10.0,South,13.8,19.6,N/A,,Clear,180,2014-04-10 17:53:00
1:53 PM,75.9,46.9,36,30.17,10.0,South,10.4,18.4,N/A,,Clear,180,2014-04-10 18:53:00
2:53 PM,77.0,48.0,36,30.14,10.0,South,11.5,-,N/A,,Clear,170,2014-04-10 19:53:00
3:53 PM,78.1,46.0,32,30.11,10.0,South,12.7,17.3,N/A,,Clear,190,2014-04-10 20:53:00
4:53 PM,79.0,46.0,31,30.09,10.0,SSW,11.5,18.4,N/A,,Clear,200,2014-04-10 21:53:00
5:53 PM,78.1,46.9,33,30.08,10.0,SW,9.2,-,N/A,,Clear,220,2014-04-10 22:53:00
6:53 PM,75.0,48.9,40,30.08,10.0,SW,6.9,-,N/A,,Clear,220,2014-04-10 23:53:00
7:53 PM,71.1,48.9,45,30.09,10.0,SSW,6.9,-,N/A,,Clear,200,2014-04-11 00:53:00
8:53 PM,69.1,48.9,49,30.12,10.0,SSW,5.8,-,N/A,,Clear,200,2014-04-11 01:53:00
9:53 PM,66.0,50.0,56,30.13,10.0,South,5.8,-,N/A,,Clear,190,2014-04-11 02:53:00
10:53 PM,64.0,48.9,58,30.13,10.0,South,8.1,-,N/A,,Clear,180,2014-04-11 03:53:00
11:53 PM,63.0,48.9,60,30.14,10.0,South,6.9,-,N/A,,Clear,190,2014-04-11 04:53:00